Custer, SD

9:02 AM MDT on July 20, 2017 (GMT -0600)
Custer County

Weather History for KCUT - January, 2013

Change the Weather History Date:

Friday, January 4, 2013

  Actual Average Record
Temperature  
Mean Temperature 33 °F 24 °F  
Max Temperature 48 °F 35 °F 60 °F (1962)
Min Temperature 18 °F 13 °F -31 °F (1959)
Degree Days  
Heating Degree Days 32 41  
Month to date heating degree days 179 164  
Since 1 July heating degree days 3324 3634  
Cooling Degree Days 0 0  
Month to date cooling degree days 0 0  
Year to date cooling degree days 0 0  
Moisture  
Dew Point 2 °F    
Average Humidity 33    
Maximum Humidity 52    
Minimum Humidity 14    
Precipitation  
Precipitation 0.00 in 0.01 in 0.49 in (1926)
Month to date precipitation 0.01 0.04  
Year to date precipitation 0.01 0.04  
Sea Level Pressure  
Sea Level Pressure 30.09 in    
Wind  
Wind Speed 5 mph (WNW)    
Max Wind Speed 15 mph    
Max Gust Speed 20 mph    
Visibility 10 miles    
Events      
T = Trace of Precipitation, MM = Missing Value Source: NWS Daily Summary

Daily Weather History Graph

Daily Weather History Graph

Search for Another Location

Airport or City:

Trip Planner

Search our weather history database for the weather conditions in past years. The results will help you decide how hot, cold, wet, or windy it might be!

Date:

Astronomy

Jan. 04, 2013 Rise Set
Actual Time 7:28 AM MST 4:31 PM MST
Civil Twilight 6:55 AM MST 5:03 PM MST
Nautical Twilight 6:19 AM MST 5:39 PM MST
Astronomical Twilight 5:44 AM MST 6:14 PM MST
Moon No Moon Rise 10:57 AM MST (1/4)
Length of Visible Light 10h 08m
Length of Day
9h 02m
Waning Gibbous, 54% of the Moon is Illuminated
Jan 4
Waning Gibbous
Jan 4
Last Quarter
Jan 11
New
Jan 18
First Quarter
Jan 26
Full

Hourly Weather History & Observations

Time (MST) Temp. Windchill Dew Point Humidity Pressure Visibility Wind Dir Wind Speed Gust Speed Precip Events Conditions
12:53 AM 21.9 °F 15.7 °F 6.1 °F 51% 30.16 in 10.0 mi West 4.6 mph - N/A   Clear
1:53 AM 19.9 °F 12.1 °F 5.0 °F 52% 30.17 in 10.0 mi NW 5.8 mph - N/A   Clear
2:53 AM 24.1 °F 19.7 °F -0.9 °F 34% 30.15 in 10.0 mi WNW 3.5 mph - N/A   Clear
3:53 AM 24.1 °F 15.2 °F -6.0 °F 27% 30.16 in 10.0 mi NW 8.1 mph - N/A   Clear
4:53 AM 25.0 °F 16.3 °F -9.9 °F 21% 30.17 in 10.0 mi NW 8.1 mph - N/A   Clear
5:53 AM 24.1 °F 18.2 °F -7.1 °F 25% 30.17 in 10.0 mi NW 4.6 mph - N/A   Clear
6:53 AM 28.9 °F 22.8 °F -6.0 °F 22% 30.14 in 10.0 mi NW 5.8 mph - N/A   Clear
7:53 AM 32.0 °F 27.5 °F -5.1 °F 20% 30.13 in 10.0 mi WNW 4.6 mph - N/A   Clear
8:53 AM 33.1 °F - -2.9 °F 21% 30.14 in 10.0 mi Calm Calm - N/A   Clear
9:53 AM 43.0 °F - 1.9 °F 18% 30.11 in 10.0 mi Calm Calm - N/A   Clear
10:53 AM 45.0 °F 42.6 °F -2.9 °F 14% 30.09 in 10.0 mi WSW 4.6 mph - N/A   Clear
11:53 AM 46.9 °F - 1.9 °F 16% 30.06 in 10.0 mi Variable 6.9 mph - N/A   Clear
12:53 PM 46.0 °F 40.2 °F 6.1 °F 20% 30.04 in 10.0 mi West 12.7 mph - N/A   Clear
1:53 PM 46.0 °F 40.2 °F 10.9 °F 24% 30.03 in 10.0 mi West 12.7 mph - N/A   Clear
2:53 PM 46.9 °F - 8.1 °F 21% 30.01 in 10.0 mi WNW 9.2 mph 16.1 mph N/A   Clear
3:53 PM 45.0 °F 41.8 °F 7.0 °F 21% 30.01 in 10.0 mi ENE 5.8 mph - N/A   Clear
4:53 PM 37.0 °F 34.5 °F 7.0 °F 29% 30.06 in 10.0 mi ENE 3.5 mph - N/A   Clear
5:53 PM 34.0 °F 31.0 °F 5.0 °F 30% 30.08 in 10.0 mi Variable 3.5 mph - N/A   Clear
6:53 PM 25.0 °F 20.7 °F 8.1 °F 49% 30.10 in 10.0 mi NW 3.5 mph - N/A   Clear
7:53 PM 28.0 °F 24.2 °F 7.0 °F 41% 30.08 in 10.0 mi WSW 3.5 mph - N/A   Clear
8:53 PM 25.0 °F 15.5 °F 6.1 °F 45% 30.09 in 10.0 mi WNW 9.2 mph - N/A   Clear
9:53 PM 23.0 °F - 5.0 °F 46% 30.05 in 10.0 mi Calm Calm - N/A   Clear
10:53 PM 21.9 °F 15.7 °F 5.0 °F 48% 30.04 in 10.0 mi NW 4.6 mph - N/A   Clear
11:53 PM 19.9 °F 13.4 °F 3.9 °F 50% 30.04 in 10.0 mi North 4.6 mph - N/A   Clear